Location: Unspecified
(0.0000°N, 0.0000°E)
Time: 09:35:55
(UTC+01:00)

GPS 2-12 Rocket1 - Visible Passes

Search period start: 07 December 2016 00:00
Search period end: 17 December 2016 00:00
Orbit: 587 x 653 km, 20.0° (Epoch: 06 December)

Date Brightness Start Highest point End Pass type
(mag) Time Alt. Az. Time Alt. Az. Time Alt. Az.
07 Dec 5.5 04:43:11 14° NE 04:43:11 14° NE 04:43:58 10° NE visible
07 Dec 5.1 06:21:06 10° NW 06:23:28 13° NNW 06:25:50 10° NNE visible
08 Dec 5.5 04:58:59 13° NNE 04:58:59 13° NNE 04:59:44 10° NNE visible
09 Dec 5.5 05:14:41 11° NNE 05:14:41 11° NNE 05:15:11 10° NNE visible
14 Dec 5.2 20:26:43 10° SSW 20:29:05 14° SSE 20:30:25 13° SE visible
15 Dec 4.7 20:42:08 10° SSW 20:45:35 22° SSE 20:45:39 22° SSE visible
16 Dec 4.4 20:57:55 10° SW 21:00:54 31° SSW 21:00:54 31° SSW visible
